星链-37728(STARLINK-37728)

导读

STARLINK-37728(NORAD编号69221)是SpaceX星链(Starlink)互联网星座中的一颗低轨通信卫星,隶属于SpaceX打造的全球卫星互联网项目,该项目旨在通过大规模低轨卫星星座,为全球提供低成本、高性能的空间互联网接入服务。 作为星链组网卫星之一,它运行在近地轨道,运行周期约90余分钟,依托星链星座的密集部署设计,参与实现全球范围的宽带网络覆盖,为偏远地区、海上以及空中等场景提供互联网通信支持,其轨道数据可通过公开卫星监测平台进行跟踪。

Basic Information
目录编号:
69221
目录名称:
STARLINK-37728
国际标识:
2026-115L
轨道中心:
EARTH
卫星名称:
星链-37728
卫星全名:
星链-37728(STARLINK-37728)
卫星状态:
在轨 (已飞行109 天)
发射日期:
2026-05-26 UTC
国别 :
美国 (US)
星等 :
--
This satellite is enrolled in the Space Conjunction Data Service (SCDS) and the current flight risk assessment level is: No High Risk
Orbit Information
数据来源 国际轨道数据
星历时间: 2026-09-12T02:43:15+0800
12小时前
查看轨道信息
半长轴: 6843.685km
偏心率: 0.0001516
轨道倾角: 97.284°
近地点辐角 104.721°
升交点赤经 270.995°
平近点角 255.420°
近地点: 464.51km
远地点: 466.586km
周期: 93.906分钟
每日圈数: 15.334435
Detailed Information
固有亮度:
5
最大亮度:
2.5
卫星平台:
Starlink V1.0
覆盖范围:
全球
运营商:
太空探索技术公司
运营商所在国:
美国
制造商(研发单位):
太空探索技术公司
制造商所在国:
美国
使用方式:
暂无
Satellite Introduction
Starlink 计划是 SpaceX 推出的全球卫星互联网项目,通过发射低轨道卫星,为全球尤其是偏远地区提供高速、低延迟的互联网服务。自 2019 年起,Starlink 已部署数千颗卫星,旨在缩小全球数字鸿沟,推动互联网普及。该项目还为军事、航空等行业提供通信支持,带来广泛经济效益。
2D Orbit Map
3D Orbit Map
Orbit Altitude Analysis Chart
Orbit Inclination Analysis Chart
Orbit Comprehensive Analysis Chart
View Comprehensive Chart
Conjunction Data List
Event ID Objects TCA Miss Dist (km) Collision Risk Probability Collision Risk Index (CRI) Action
CDM_260914-004405-396906-922121
2026-09-14T
00:44:23+0000
2.448 km
极远距离
1.821526E-6 低风险 0.4
CDM_260914-172505-112406-922121
2026-09-14T
17:25:36+0000
2.477 km
极远距离
1.613932E-6 低风险 0.39
CDM_260912-141205-941306-922121
2026-09-12T
14:12:31+0000
2.624 km
极远距离
1.576654E-6 低风险 0.39
CDM_260914-075805-784306-922121
2026-09-14T
07:58:28+0000
2.775 km
极远距离
1.451212E-6 低风险 0.38
CDM_260914-163706-563406-922121
2026-09-14T
16:37:49+0000
2.740 km
极远距离
1.424462E-6 低风险 0.38
CDM_260912-120305-020206-922121
2026-09-12T
12:03:56+0000
2.853 km
极远距离
1.416325E-6 低风险 0.38
CDM_260914-045304-837106-922121
2026-09-14T
04:53:40+0000
2.816 km
极远距离
1.203519E-6 低风险 0.37
Miss Distance Evolution Trend with All Objects
Collision Probability Evolution Trend with All Objects